User: anonymous   Login
Location: Newark
(5.8900°S, 42.6378°W)
Time: 06:04:34
(UTC+00:00)
Language:

Oscar 11 - Orbit

View from above orbital plane
View from above orbital plane
View from above satellite
View from above satellite

Ground track
Ground track

The orbit data is extracted from the following two-line orbital elements,

1 14781U 84021B   19289.45550546  .00000053  00000-0  12654-4 0  9999
2 14781  97.6048 308.4689 0007050 289.8310  70.2144 14.83112491916512
Epoch (UTC): 16 October 2019 10:55:55
Eccentricity: 0.0007050
inclination: 97.6048°
perigee height: 614 km
apogee height: 624 km
right ascension of ascending node: 308.4689°
argument of perigee: 289.8310°
revolutions per day: 14.83112491
mean anomaly at epoch: 70.2144°
orbit number at epoch: 91651

The dashed part of the orbit path shows where the satellite is in the earth's shadow,  

DLR